View from above orbital plane
|
View from above satellite
|
Ground track
|
The orbit data is extracted from the following two-line orbital elements,
1 10677U 78019B 21058.45730355 .00000047 00000-0 23325-4 0 9994
2 10677 74.0399 324.5774 0014148 64.9933 295.2690 14.40172150256741
Epoch (UTC): | 27 February 2021 10:58:31 |
Eccentricity: | 0.0014148 |
inclination: | 74.0399° |
perigee height: | 748 km |
apogee height: | 768 km |
right ascension of ascending node: | 324.5774° |
argument of perigee: | 64.9933° |
revolutions per day: | 14.40172150 |
mean anomaly at epoch: | 295.2690° |
orbit number at epoch: | 25674 |
The dashed part of the orbit path shows where the satellite is in the earth's shadow,
|
|